Location: ?????? ??????
(44.3742°N, 135.2221°E)
Time: 08:40:57
(UTC+00:00)

Meteor 1-22 Rocket - Visible Passes

Search period start: 12 April 2026 00:00
Search period end: 22 April 2026 00:00
Orbit: 787 x 938 km, 81.2° (Epoch: 11 April)

Date Brightness Start Highest point End Pass type
(mag) Time Alt. Az. Time Alt. Az. Time Alt. Az.
12 Apr 4.4 10:17:47 10° S 10:23:23 84° W 10:29:17 10° N visible
12 Apr 7.3 12:04:53 10° W 12:07:37 13° WNW 12:10:22 10° NNW visible
12 Apr 7.6 19:15:21 10° NNE 19:18:38 15° ENE 19:21:54 10° E visible
13 Apr 4.4 10:09:15 10° S 10:14:52 85° W 10:20:47 10° N visible
13 Apr 7.3 11:56:15 10° W 11:59:04 14° WNW 12:01:56 10° NNW visible
13 Apr 7.6 19:06:52 10° NNE 19:10:06 14° ENE 19:13:19 10° E visible
14 Apr 7.4 11:47:38 10° W 11:50:32 14° WNW 11:53:29 10° NNW visible
14 Apr 7.7 18:58:24 10° NNE 19:01:34 14° ENE 19:04:44 10° E visible
15 Apr 7.4 11:39:01 10° W 11:42:00 14° WNW 11:45:03 10° NNW visible
15 Apr 7.7 18:49:56 10° NNE 18:53:03 14° ENE 18:56:09 10° E visible
16 Apr 7.4 11:30:24 10° W 11:33:28 14° WNW 11:36:36 10° NNW visible
16 Apr 7.7 18:41:28 10° NNE 18:44:32 14° ENE 18:47:33 10° E visible
17 Apr 7.5 11:21:47 10° W 11:24:56 15° WNW 11:28:08 10° NNW visible
17 Apr 7.7 18:33:00 10° NNE 18:36:00 14° ENE 18:38:58 10° E visible
18 Apr 7.5 11:13:09 10° W 11:16:24 15° WNW 11:19:41 10° NNW visible
18 Apr 7.6 18:24:33 10° NNE 18:27:28 14° ENE 18:30:22 10° E visible
19 Apr 7.6 11:04:33 10° W 11:07:52 15° WNW 11:11:14 10° NNW visible
19 Apr 7.6 18:16:05 10° NNE 18:18:56 13° ENE 18:21:46 10° E visible
20 Apr 7.6 10:55:57 10° W 10:59:20 16° WNW 11:02:47 10° NNW visible
20 Apr 7.6 18:07:39 10° NNE 18:10:25 13° ENE 18:13:10 10° E visible
21 Apr 7.6 10:47:21 10° W 10:50:48 16° WNW 10:54:19 10° NNW visible
21 Apr 7.5 17:59:12 10° NNE 18:01:53 13° ENE 18:04:33 10° E visible
